sat.trackr.live / text

‹ back to catalog

STARLINK-4115

NORAD 53032 · 2022-076AY

PAYLOAD ACTIVE UNKNOWN

§ Identity

Operator
Country
US
Launch date
2022-07-07
Launch site
AFETR
Launch vehicle
Mass (kg)
RCS (m²)

Purposes: comms

External: N2YO · Heavens-Above · Gunter

§ Orbital elements

Epoch: 2026-05-25T02:10:50.990016Z

Period
95.44 min
Inclination
53.2148°
Eccentricity
0.0001286
Mean motion
15.08835375 rev/d
Perigee alt
538.9 km
Apogee alt
540.6 km
Semi-major
6,917.9 km
B*
-1.3372e-5
RAAN
101.1421°
Arg perigee
76.9806°
Mean anomaly
283.1330°
Rev number
21,452

§ Raw data

STARLINK-41151 53032U 22076AY  26145.09086794 -.00000501  00000+0 -13372-4 0  99982 53032  53.2148 101.1421 0001286  76.9806 283.1330 15.08835375214520

JSON: /api/v1/satellites/53032 · /tle

For live sub-satellite position, see the globe view (requires WebGL).

§ Visibility from observer

Set your observer location to see the next 7 days of passes ≥ 10°. The values pass through the URL so the page stays shareable.

No JS? Fill the form by hand. The geolocation button needs JavaScript.